EW6625 Weather Reports


Display with metric or nautical units.
time (UTC)temp
F
wind
direction
speed
MPH
gust
MPH
rain 1hr
in
rain 24hr
in
rain mn
in
humidity
%
barometer
mb
20260510083002 46 283 2.0 3.0 0.00 0.47 0.00 98 1003.4
20260510082459 46 284 2.0 3.0 0.00 0.47 0.00 99 1003.4
20260510082000 46 290 2.0 3.0 0.00 0.47 0.00 99 1003.3
20260510081456 46 277 2.0 3.0 0.00 0.47 0.00 99 1003.3
20260510080955 46 279 2.0 3.0 0.00 0.48 0.00 99 1003.2
20260510080456 46 245 1.0 3.0 0.00 0.48 0.00 99 1003.1
20260510075956 46 279 1.0 3.0 0.00 0.48 0.00 99 1003.1
20260510075756 46 269 2.0 3.0 0.00 0.48 0.00 99 1003.0
20260510074956 47 269 2.0 3.0 0.00 0.49 0.00 98 1003.1
20260510074456 47 279 2.0 3.0 0.00 0.49 0.00 99 1003.2
20260510073956 47 269 2.0 3.0 0.00 0.49 0.00 99 1003.1
20260510073457 47 291 2.0 3.0 0.00 0.50 0.00 99 1003.2
20260510072954 47 245 1.0 3.0 0.00 0.51 0.00 99 1003.3
20260510072453 47 258 2.0 3.0 0.00 0.51 0.00 99 1003.3
20260510071954 47 314 2.0 3.0 0.00 0.52 0.00 99 1003.2
20260510071453 47 238 2.0 3.0 0.00 0.53 0.00 99 1003.2
20260510070954 47 210 2.0 3.0 0.00 0.53 0.00 99 1003.4
20260510070749 47 331 2.0 3.0 0.00 0.54 0.00 99 1003.4
20260510065955 48 295 2.0 3.0 0.00 0.54 0.00 99 1003.9
20260510065455 48 245 1.0 3.0 0.00 0.55 0.00 99 1003.8
20260510064955 48 229 1.0 2.0 0.00 0.56 0.00 99 1003.8
20260510064750 48 253 1.0 3.0 0.00 0.57 0.00 99 1003.8
20260510064248 48 223 1.0 4.0 0.00 0.57 0.00 99 1003.8
20260510063451 48 114 2.0 4.0 0.00 0.58 0.00 99 1003.9
20260510062949 48 178 2.0 3.0 0.00 0.59 0.00 99 1004.2
20260510062448 48 206 1.0 3.0 0.00 0.59 0.00 99 1004.2
20260510061948 48 295 2.0 3.0 0.00 0.59 0.00 99 1004.4
20260510061447 48 279 2.0 3.0 0.00 0.59 0.00 99 1004.2
20260510060948 48 197 2.0 5.0 0.00 0.59 0.00 99 1004.2
20260510060446 48 283 3.0 6.0 0.00 0.60 0.00 99 1004.6
20260510060241 48 290 3.0 6.0 0.00 0.60 0.00 99 1004.4
20260510055549 48 269 2.0 4.0 0.00 0.60 0.00 99 1004.8
20260510055528 48 281 2.0 4.0 0.00 0.60 0.00 99 1004.8
20260510054443 48 250 3.0 6.0 0.00 0.60 0.00 99 1004.8
20260510054241 48 283 4.0 8.0 0.00 0.61 0.00 99 1004.8
20260510053439 48 269 5.0 8.0 0.00 0.61 0.00 99 1004.9
20260510052940 47 272 4.0 10.0 0.00 0.61 0.00 99 1005.0
20260510052736 46 300 3.0 11.0 0.00 0.61 0.00 99 1004.8
20260510051937 45 218 2.0 11.0 0.00 0.61 0.00 99 1004.7
20260510051436 45 223 3.0 6.0 0.00 0.61 0.00 98 1004.6
20260510050935 45 290 3.0 6.0 0.00 0.61 0.00 98 1004.6
20260510050734 44 260 2.0 3.0 0.00 0.61 0.00 98 1004.1
20260510045935 44 233 1.0 2.0 0.00 0.61 0.00 98 1004.0
20260510045435 44 223 1.0 3.0 0.00 0.61 0.00 98 1003.8
20260510045237 44 178 2.0 5.0 0.00 0.61 0.00 98 1003.8
20260510044436 45 276 2.0 5.0 0.00 0.61 0.00 98 1003.9
20260510043937 45 283 2.0 2.0 0.00 0.61 0.00 98 1003.9
20260510043437 45 257 2.0 3.0 0.00 0.61 0.00 98 1003.9
20260510042933 45 269 2.0 3.0 0.00 0.61 0.00 98 1003.9
20260510042431 45 277 1.0 3.0 0.00 0.61 0.00 98 1003.9
20260510041931 45 269 1.0 2.0 0.00 0.61 0.00 98 1003.8
20260510041431 45 240 1.0 2.0 0.00 0.61 0.00 98 1003.8
20260510040929 45 295 1.0 3.0 0.00 0.61 0.00 98 1003.8
20260510040430 46 283 2.0 3.0 0.00 0.61 0.00 98 1003.8
20260510035929 46 231 2.0 3.0 0.00 0.61 0.61 98 1003.8
20260510035428 46 259 2.0 3.0 0.00 0.61 0.61 98 1003.6
20260510034930 46 269 2.0 3.0 0.00 0.61 0.61 98 1003.3
20260510034429 46 252 2.0 3.0 0.00 0.61 0.61 99 1003.2
20260510033932 46 234 2.0 3.0 0.00 0.61 0.61 98 1003.1
20260510033433 46 252 2.0 4.0 0.00 0.61 0.61 98 1003.1
20260510032931 46 206 2.0 5.0 0.00 0.61 0.61 98 1003.1
20260510032429 46 215 2.0 5.0 0.00 0.61 0.61 98 1003.2
20260510031929 46 231 2.0 3.0 0.00 0.61 0.61 98 1003.2
20260510031429 45 286 2.0 3.0 0.00 0.61 0.61 98 1003.3
20260510030929 45 250 2.0 3.0 0.00 0.61 0.61 98 1003.2
20260510030429 45 258 2.0 3.0 0.00 0.61 0.61 97 1003.2
20260510025929 45 259 1.0 3.0 0.00 0.61 0.61 98 1003.2
20260510025429 45 283 1.0 2.0 0.00 0.61 0.61 98 1003.2
20260510024929 45 269 1.0 3.0 0.00 0.61 0.61 97 1003.3
20260510024724 45 245 1.0 3.0 0.00 0.61 0.61 97 1003.3
20260510023930 45 252 1.0 2.0 0.00 0.61 0.61 97 1003.3
20260510023724 45 257 1.0 3.0 0.00 0.61 0.61 97 1003.1
20260510022929 45 284 1.0 3.0 0.00 0.61 0.61 97 1003.2
20260510022725 45 257 1.0 3.0 0.00 0.61 0.61 97 1003.1
20260510021929 46 258 1.0 3.0 0.00 0.61 0.61 97 1003.1
20260510021429 46 269 1.0 2.0 0.00 0.61 0.61 97 1003.2
20260510020930 46 283 1.0 3.0 0.00 0.61 0.61 97 1003.2
20260510020429 46 269 1.0 3.0 0.00 0.61 0.61 97 1003.3
20260510015930 46 250 1.0 3.0 0.00 0.61 0.61 97 1003.3
20260510015429 46 216 1.0 2.0 0.00 0.61 0.61 97 1003.2
20260510014929 46 253 1.0 2.0 0.00 0.61 0.61 97 1003.2
20260510014430 46 240 1.0 2.0 0.00 0.61 0.61 97 1003.1
20260510013929 46 269 1.0 2.0 0.00 0.61 0.61 96 1003.0
20260510013430 46 269 1.0 3.0 0.00 0.61 0.61 96 1003.1
20260510012929 47 222 1.0 3.0 0.00 0.61 0.61 96 1003.1
20260510012725 47 269 1.0 3.0 0.00 0.61 0.61 96 1003.1
20260510012225 47 252 2.0 3.0 0.00 0.61 0.61 96 1003.2
20260510011729 47 269 2.0 3.0 0.00 0.61 0.61 96 1003.1
20260510010932 47 286 2.0 3.0 0.00 0.61 0.61 97 1003.0
20260510010725 47 284 2.0 4.0 0.00 0.61 0.61 97 1002.9
20260510010230 48 229 2.0 4.0 0.00 0.61 0.61 96 1002.9
20260510005430 48 221 2.0 4.0 0.00 0.61 0.61 96 1002.9
20260510004930 48 252 2.0 4.0 0.00 0.61 0.61 96 1002.8
20260510004431 48 277 2.0 5.0 0.00 0.61 0.61 96 1002.8
20260510003931 48 277 2.0 5.0 0.00 0.61 0.61 96 1002.8
20260510003431 49 260 2.0 3.0 0.00 0.61 0.61 96 1002.7
20260510002932 49 201 1.0 3.0 0.00 0.61 0.61 96 1002.7
20260510002431 49 240 1.0 2.0 0.00 0.61 0.61 96 1002.8
20260510001931 49 223 2.0 3.0 0.00 0.61 0.61 96 1002.7
20260510001432 49 229 2.0 3.0 0.00 0.61 0.61 96 1002.8
20260510000932 50 240 1.0 4.0 0.00 0.61 0.61 96 1002.6
20260510000433 50 269 2.0 4.0 0.00 0.61 0.61 96 1002.6
20260510000227 50 231 2.0 4.0 0.00 0.61 0.61 97 1002.6
20260509235431 50 231 2.0 4.0 0.00 0.61 0.61 97 1002.3
20260509234933 50 245 3.0 7.0 0.00 0.61 0.61 97 1002.2
20260509234432 50 269 3.0 7.0 0.00 0.61 0.61 97 1002.1
20260509234338 51 216 3.0 6.0 0.00 0.61 0.61 97 1001.9
20260509234011 50 233 3.0 6.0 0.00 0.61 0.61 97 1002.0
20260509232931 51 169 3.0 6.0 0.00 0.61 0.61 97 1001.9
20260509232432 51 210 3.0 7.0 0.00 0.61 0.61 97 1002.1
20260509231932 51 250 3.0 8.0 0.00 0.61 0.61 97 1002.1
20260509231431 51 197 4.0 8.0 0.00 0.61 0.61 97 1002.2
20260509230932 51 236 4.0 9.0 0.00 0.61 0.61 97 1002.1
20260509230431 51 223 5.0 11.0 0.00 0.61 0.61 97 1002.0
20260509225932 51 220 6.0 11.0 0.00 0.61 0.61 97 1001.7
20260509225724 51 250 6.0 12.0 0.00 0.61 0.61 97 1001.6
20260509225224 51 209 6.0 12.0 0.00 0.61 0.61 97 1001.5
20260509224429 51 194 5.0 11.0 0.00 0.61 0.61 97 1001.5
20260509223928 51 212 5.0 8.0 0.00 0.61 0.61 97 1001.5
20260509223428 51 213 5.0 10.0 0.00 0.61 0.61 97 1001.5
20260509222930 51 214 5.0 10.0 0.00 0.61 0.61 97 1001.6
20260509222428 51 222 5.0 10.0 0.00 0.61 0.61 98 1001.6
20260509221929 51 190 5.0 8.0 0.00 0.61 0.61 97 1001.8
20260509221430 51 196 4.0 8.0 0.00 0.61 0.61 97 1001.9
20260509220930 51 209 4.0 8.0 0.00 0.61 0.61 97 1002.0
20260509220430 51 216 4.0 8.0 0.00 0.61 0.61 97 1002.0
20260509215929 51 250 4.0 9.0 0.01 0.61 0.61 97 1002.2
20260509215430 51 197 4.0 9.0 0.01 0.61 0.61 97 1002.2
20260509214930 51 193 4.0 7.0 0.01 0.61 0.61 97 1002.3
20260509214429 50 229 5.0 12.0 0.01 0.61 0.61 96 1002.5
20260509213930 51 246 5.0 12.0 0.02 0.61 0.61 96 1002.5
20260509213430 51 207 3.0 8.0 0.02 0.61 0.61 96 1002.3
20260509212930 50 223 3.0 8.0 0.02 0.61 0.61 96 1002.5
20260509212729 50 208 4.0 11.0 0.03 0.61 0.61 96 1002.6
20260509211930 50 250 6.0 11.0 0.03 0.61 0.61 96 1002.5
20260509211539 50 212 8.0 16.0 0.03 0.61 0.61 95 1002.5
20260509211516 50 205 7.0 16.0 0.03 0.61 0.61 96 1002.3
20260509210431 51 226 7.0 14.0 0.03 0.61 0.61 96 1002.5
20260509205930 50 216 7.0 13.0 0.02 0.60 0.60 96 1002.5
20260509205730 50 222 6.0 12.0 0.02 0.60 0.60 96 1002.5
20260509205233 50 222 4.0 9.0 0.02 0.60 0.60 96 1002.6
20260509204429 50 272 3.0 9.0 0.02 0.60 0.60 97 1002.5
20260509203930 50 219 3.0 10.0 0.02 0.59 0.59 97 1002.6
20260509203731 50 226 4.0 10.0 0.02 0.59 0.59 97 1002.6
20260509203026 50 200 5.0 10.0 0.01 0.58 0.58 96 1002.6
20260509203005 50 181 5.0 10.0 0.02 0.59 0.59 96 1002.5
20260509201930 50 145 5.0 10.0 0.01 0.58 0.58 96 1002.7
20260509201430 50 213 6.0 17.0 0.01 0.58 0.58 96 1002.7
20260509200930 50 226 7.0 17.0 0.01 0.58 0.58 96 1002.7
20260509200726 50 240 6.0 15.0 0.02 0.58 0.58 97 1002.8
20260509195931 50 222 6.0 15.0 0.02 0.58 0.58 97 1002.8
20260509195434 49 231 5.0 13.0 0.02 0.58 0.58 97 1002.9
20260509194930 49 224 5.0 9.0 0.03 0.58 0.58 97 1002.9
20260509194429 49 223 5.0 14.0 0.03 0.58 0.58 97 1003.0
20260509193930 49 238 6.0 14.0 0.02 0.57 0.57 97 1003.0
20260509193429 49 168 6.0 14.0 0.02 0.57 0.57 97 1003.0
20260509192929 49 211 7.0 14.0 0.03 0.57 0.57 96 1003.2
20260509192429 49 218 7.0 13.0 0.03 0.57 0.57 96 1003.3
20260509191929 49 229 8.0 15.0 0.03 0.57 0.57 96 1003.3
20260509191429 49 226 8.0 17.0 0.03 0.57 0.57 96 1003.2
20260509190929 49 229 7.0 17.0 0.04 0.57 0.57 96 1003.2
20260509190430 49 211 7.0 14.0 0.03 0.56 0.56 96 1003.3
20260509185929 49 200 8.0 16.0 0.03 0.56 0.56 96 1003.3
20260509185430 49 219 8.0 18.0 0.04 0.56 0.55 96 1003.4
20260509185235 49 220 7.0 18.0 0.03 0.55 0.55 97 1003.5
20260509184429 49 165 6.0 12.0 0.03 0.55 0.55 97 1003.3
20260509184229 49 217 6.0 12.0 0.04 0.55 0.55 97 1003.5
20260509183428 50 245 7.0 19.0 0.04 0.55 0.55 97 1003.5
20260509182929 49 168 8.0 19.0 0.03 0.54 0.54 97 1003.4
20260509182430 50 209 7.0 17.0 0.04 0.54 0.54 97 1003.4
20260509181930 49 194 6.0 15.0 0.04 0.54 0.54 97 1003.4
20260509181428 49 260 7.0 15.0 0.05 0.54 0.54 97 1003.4
20260509181227 49 220 7.0 15.0 0.04 0.53 0.53 97 1003.3
20260509180429 50 227 7.0 17.0 0.05 0.53 0.53 97 1003.4
20260509175929 49 248 7.0 17.0 0.05 0.53 0.52 97 1003.3
20260509175429 49 165 7.0 18.0 0.05 0.52 0.52 97 1003.3
20260509174929 49 239 7.0 18.0 0.06 0.52 0.52 97 1003.4
20260509174726 49 186 7.0 15.0 0.07 0.52 0.52 97 1003.4
20260509173928 49 195 6.0 15.0 0.06 0.51 0.51 97 1003.3
20260509173429 49 214 5.0 12.0 0.07 0.51 0.51 98 1003.4
20260509173226 49 229 6.0 11.0 0.08 0.51 0.51 97 1003.3
20260509172429 49 226 6.0 11.0 0.07 0.50 0.50 97 1003.3
20260509171929 49 197 6.0 10.0 0.08 0.50 0.50 97 1003.2
20260509171730 49 210 6.0 13.0 0.07 0.49 0.49 97 1003.3
20260509170929 49 200 6.0 13.0 0.08 0.49 0.49 97 1003.3
20260509170428 49 229 5.0 13.0 0.07 0.48 0.48 97 1003.3
20260509170235 49 195 6.0 14.0 0.08 0.48 0.48 97 1003.3
20260509165726 49 216 7.0 14.0 0.07 0.47 0.47 97 1003.4
20260509164929 49 203 5.0 13.0 0.07 0.46 0.46 97 1003.3
20260509164430 49 188 4.0 8.0 0.06 0.45 0.45 97 1003.3
20260509163929 49 89 4.0 10.0 0.06 0.45 0.45 97 1003.3
20260509163430 49 188 4.0 10.0 0.06 0.44 0.44 97 1003.4
20260509162930 49 206 3.0 10.0 0.05 0.43 0.43 97 1003.4
20260509162430 49 214 4.0 8.0 0.06 0.43 0.43 97 1003.4
20260509161930 49 163 3.0 7.0 0.05 0.42 0.42 97 1003.5
20260509161429 49 231 3.0 6.0 0.06 0.42 0.42 97 1003.6
20260509160929 49 206 4.0 8.0 0.05 0.41 0.41 97 1003.6
20260509160429 49 199 4.0 8.0 0.06 0.41 0.41 97 1003.7
20260509155932 49 220 3.0 6.0 0.05 0.40 0.40 97 1003.7
20260509155431 49 164 2.0 6.0 0.06 0.40 0.40 97 1003.7
20260509154930 49 178 2.0 5.0 0.05 0.39 0.39 97 1003.7
20260509154730 49 197 1.0 5.0 0.06 0.39 0.39 97 1003.7
20260509153933 49 163 1.0 3.0 0.06 0.39 0.39 97 1003.7
20260509153430 48 223 1.0 4.0 0.06 0.38 0.38 97 1003.8
20260509152930 48 46 1.0 4.0 0.07 0.38 0.37 97 1003.8
20260509152729 48 105 1.0 3.0 0.06 0.37 0.37 97 1003.9
20260509151927 48 117 1.0 3.0 0.07 0.37 0.37 97 1004.0
20260509151422 48 28 1.0 3.0 0.07 0.36 0.36 97 1004.2
20260509150915 48 206 1.0 2.0 0.08 0.36 0.36 97 1004.3
20260509150409 48 76 1.0 2.0 0.07 0.35 0.35 97 1004.2
20260509145909 48 213 1.0 2.0 0.08 0.35 0.34 97 1004.2
20260509145408 48 135 1.0 2.0 0.08 0.34 0.34 97 1004.2
20260509144908 48 240 1.0 2.0 0.08 0.34 0.34 97 1004.2
20260509144407 47 135 1.0 2.0 0.08 0.33 0.33 96 1004.3
20260509144208 47 223 1.0 2.0 0.08 0.33 0.32 96 1004.4
20260509143407 47 201 1.0 2.0 0.08 0.32 0.32 96 1004.4
20260509142904 47 178 1.0 3.0 0.08 0.31 0.31 96 1004.4
20260509142405 47 135 1.0 3.0 0.08 0.31 0.31 96 1004.4
20260509142205 47 89 2.0 5.0 0.08 0.30 0.30 96 1004.4
20260509141407 47 117 2.0 5.0 0.07 0.29 0.29 96 1004.4
20260509141206 47 110 1.0 4.0 0.07 0.28 0.28 96 1004.4
20260509140707 47 152 1.0 3.0 0.08 0.28 0.28 96 1004.3
20260509135906 47 117 1.0 2.0 0.07 0.27 0.27 96 1004.3
20260509135404 47 216 1.0 2.0 0.07 0.26 0.26 97 1004.3
20260509134904 47 127 1.0 4.0 0.07 0.26 0.26 97 1004.3
20260509134404 47 197 1.0 4.0 0.07 0.25 0.25 97 1004.1
20260509133902 47 89 1.0 3.0 0.07 0.25 0.25 97 1004.2
20260509133400 47 197 1.0 4.0 0.06 0.24 0.24 97 1004.2
20260509132901 47 0 1.0 4.0 0.06 0.23 0.23 97 1004.2
20260509132401 47 108 1.0 3.0 0.06 0.23 0.23 97 1004.1
20260509131900 47 178 1.0 2.0 0.05 0.22 0.22 97 1004.2
20260509131703 47 314 1.0 2.0 0.05 0.22 0.22 97 1004.2
20260509131200 47 46 1.0 2.0 0.04 0.21 0.21 97 1004.2
20260509130401 47 76 1.0 2.0 0.03 0.20 0.20 97 1004.2
20260509125901 47 206 1.0 2.0 0.03 0.20 0.20 97 1004.2
20260509125755 47 209 1.0 3.0 0.02 0.19 0.19 98 1004.2
20260509125434 47 178 1.0 2.0 0.02 0.19 0.19 97 1004.3
20260509124401 47 314 1.0 3.0 0.01 0.18 0.18 98 1004.2
20260509123902 47 188 1.0 3.0 0.01 0.18 0.18 98 1004.1
20260509123404 47 269 2.0 4.0 0.01 0.18 0.18 98 1004.1
20260509123259 47 197 2.0 5.0 0.00 0.17 0.17 98 1004.1
20260509123254 47 1 2.0 5.0 0.00 0.17 0.17 98 1004.1
20260509121901 47 202 1.0 4.0 0.00 0.17 0.17 98 1004.1
20260509121402 47 187 1.0 3.0 0.00 0.17 0.17 98 1004.1
20260509121301 46 240 1.0 3.0 0.00 0.17 0.17 98 1004.3
20260509120936 47 89 1.0 3.0 0.00 0.17 0.17 98 1004.1
20260509115847 46 253 1.0 2.0 0.00 0.17 0.17 98 1004.2
20260509115341 46 314 1.0 3.0 0.00 0.17 0.17 98 1004.3
20260509114837 46 314 2.0 3.0 0.00 0.17 0.17 98 1004.3
20260509114331 46 89 2.0 4.0 0.00 0.17 0.17 98 1004.3
20260509113830 46 1 1.0 4.0 0.00 0.17 0.17 98 1004.3
20260509113330 46 124 1.0 2.0 0.00 0.17 0.17 98 1004.4
20260509113127 46 15 1.0 2.0 0.00 0.17 0.17 98 1004.4
20260509112330 46 253 1.0 4.0 0.00 0.17 0.17 98 1004.6
20260509111830 45 15 2.0 4.0 0.00 0.17 0.17 98 1004.6
20260509111330 45 291 2.0 4.0 0.01 0.17 0.17 98 1004.6
20260509110829 45 336 1.0 3.0 0.01 0.17 0.17 98 1004.4
20260509110330 45 290 1.0 2.0 0.01 0.17 0.17 98 1004.4
20260509110135 45 1 1.0 2.0 0.01 0.17 0.17 98 1004.3
20260509105330 45 295 1.0 2.0 0.02 0.17 0.17 98 1004.3
20260509104831 45 295 1.0 2.0 0.02 0.17 0.17 98 1004.3
20260509104628 45 331 1.0 2.0 0.02 0.17 0.17 98 1004.2
20260509103829 45 89 1.0 2.0 0.02 0.17 0.17 98 1004.2
20260509103330 45 56 1.0 2.0 0.02 0.17 0.17 98 1004.3
20260509102831 45 63 0.0 2.0 0.02 0.17 0.17 98 1004.3
20260509102330 45 250 0.0 1.0 0.02 0.17 0.17 98 1004.4
20260509102133 45 240 0.0 1.0 0.02 0.17 0.17 98 1004.7
20260509101331 45 240 1.0 2.0 0.01 0.16 0.16 98 1004.6
20260509100832 45 178 1.0 2.0 0.01 0.16 0.16 98 1004.6
20260509100333 45 233 1.0 2.0 0.01 0.16 0.16 98 1004.6
20260509100116 45 269 1.0 2.0 0.02 0.16 0.16 98 1004.6
20260509095330 45 269 1.0 2.0 0.01 0.15 0.15 97 1004.6
20260509094829 45 269 1.0 2.0 0.01 0.15 0.15 97 1004.4
20260509094331 45 240 1.0 3.0 0.01 0.15 0.15 97 1004.4
20260509093829 45 240 2.0 3.0 0.01 0.15 0.15 97 1004.6
20260509093330 44 276 2.0 3.0 0.01 0.15 0.15 97 1004.4
20260509092830 45 269 1.0 3.0 0.01 0.15 0.15 97 1004.3
20260509092330 45 269 2.0 4.0 0.01 0.15 0.15 97 1004.4
20260509091829 45 269 2.0 4.0 0.01 0.15 0.15 97 1004.4
20260509091330 44 248 2.0 4.0 0.01 0.15 0.15 97 1004.8
20260509090830 44 245 2.0 3.0 0.02 0.15 0.15 97 1004.6
20260509090332 44 233 2.0 3.0 0.02 0.15 0.15 97 1004.7
20260509085831 44 210 2.0 3.0 0.01 0.14 0.14 97 1004.9
20260509085329 44 269 2.0 3.0 0.01 0.14 0.14 97 1004.9
20260509084830 44 295 2.0 3.0 0.02 0.14 0.14 97 1004.8
20260509084329 44 238 2.0 3.0 0.02 0.14 0.14 97 1004.9
20260509083831 44 218 1.0 3.0 0.03 0.14 0.14 97 1004.8
20260509083329 44 210 1.0 2.0 0.03 0.14 0.14 97 1004.9
20260509083133 45 178 1.0 2.0 0.04 0.14 0.14 97 1004.8